Wind_Speed
24 31 27 25 27 26 23 23 24 24 24 24 24 26 27 28 27 27 28 29 28 29 28 26 26 26 26 26 25 29 31 27 32 30 30 28 28 29 29 28 28 28 29
30 29 28 27 29 26 24 24 24 24 24 24 24 26 27 27 26 27 27 26 26 26 26 25 25 25 24 25 26 26 29 33 32 30 29 30 29 28 29 28 28 28 29
32 32 29 28 29 27 24 25 24 24 24 24 26 26 26 26 26 27 27 26 26 26 26 24 24 23 24 25 26 32 32 28 29 30 28 28 28 27 28 27 27 27 28
31 30 30 28 27 27 26 25 24 23 24 25 26 25 26 25 25 26 26 25 26 25 25 24 24 25 28 32 30 26 27 25 29 28 28 27 27 26 26 27 26 26 27
29 28 32 31 28 25 26 26 24 24 25 26 25 24 24 24 25 24 25 25 25 25 23 23 27 30 31 28 24 26 28 27 26 27 27 27 26 24 25 26 26 26 25
29 27 33 31 29 27 27 26 25 25 26 27 24 23 24 24 24 23 23 24 25 24 23 24 27 29 27 23 23 28 27 28 27 25 26 25 25 24 25 24 25 24 25
32 28 31 31 29 28 27 26 26 26 27 26 24 24 24 24 23 22 23 25 25 22 23 25 28 27 26 29 28 26 26 26 26 26 25 24 24 23 23 24 24 24 24
33 29 28 29 28 29 27 26 26 27 28 25 23 24 24 23 22 20 25 25 24 22 23 26 27 27 25 24 26 27 26 26 26 25 24 23 22 22 23 23 23 23 24
35 30 27 26 26 27 26 27 27 29 28 25 23 24 23 22 20 20 24 24 24 20 23 25 27 27 25 24 23 20 29 29 24 22 22 22 21 21 22 22 23 22 24
34 31 27 25 24 24 26 27 29 29 26 24 23 23 22 20 18 22 24 23 23 21 22 26 27 28 28 26 27 26 26 25 24 22 22 21 20 20 21 21 22 21 22
29 29 28 27 25 23 25 28 29 28 25 23 23 21 22 21 23 20 21 23 21 19 22 27 30 27 25 23 19 18 21 25 21 21 21 18 19 20 20 20 20 20 21
27 28 29 28 27 26 24 30 29 27 26 24 22 23 22 22 20 21 20 21 19 21 27 30 28 23 20 20 20 18 19 19 21 19 20 17 18 18 19 18 20 20 20
26 27 30 29 29 27 27 26 26 27 25 23 22 19 24 27 21 20 20 18 24 23 25 21 17 7 10 17 16 22 24 21 20 19 18 16 17 17 17 18 18 19 18
27 27 31 29 29 26 28 26 26 25 25 24 20 19 25 23 23 17 15 15 19 14 13 11 5 10 14 13 21 16 18 18 19 18 16 16 18 15 16 16 17 18 18
26 31 30 30 27 28 27 24 27 25 25 24 21 22 22 21 22 18 16 15 18 10 11 15 15 14 14 14 17 21 21 19 15 17 18 15 14 14 15 15 15 16 16
29 30 31 29 26 31 26 23 27 25 25 27 23 23 23 20 19 18 17 16 12 12 14 15 16 16 15 13 16 16 17 18 14 14 16 16 16 15 14 14 14 14 14
28 32 31 30 28 26 24 21 24 20 22 23 24 24 18 19 22 19 17 17 16 16 16 18 15 16 15 15 14 12 15 15 20 11 12 12 12 12 12 13 12 13 13
28 33 34 30 31 29 17 23 22 21 20 16 23 22 20 21 22 22 17 18 13 18 17 18 16 16 16 14 13 12 11 11 10 12 11 12 9 12 10 13 12 11 10
28 33 32 33 32 36 21 22 23 25 19 14 20 22 21 20 20 22 18 17 19 18 17 18 17 17 16 16 14 12 11 10 10 7 8 13 10 13 11 8 12 11 10
27 29 30 31 32 34 29 23 25 26 20 16 20 19 26 20 22 24 20 17 20 19 19 18 18 17 17 16 16 13 12 10 9 7 6 8 8 7 6 8 10 10 10
31 26 30 30 32 31 32 27 30 26 21 19 20 17 29 18 24 26 23 21 22 22 20 19 19 19 18 15 19 12 9 8 8 10 9 9 8 10 9 8 12 3 8
30 33 31 33 30 31 31 26 27 31 29 18 19 17 21 24 23 26 26 27 25 22 21 22 21 21 20 19 15 14 3 6 9 10 11 11 9 10 10 12 7 9 5
28 30 34 34 35 33 28 32 25 22 20 25 24 25 25 30 23 27 26 29 27 23 26 26 24 24 23 22 21 8 4 4 16 13 13 12 14 11 10 11 13 12 7
26 30 34 31 33 32 33 35 34 30 26 24 25 27 28 26 32 27 27 29 32 25 25 30 28 27 23 24 21 27 10 7 4 3 16 15 14 14 16 12 13 14 15
29 26 27 32 31 33 37 35 33 27 26 25 26 33 34 30 32 34 31 32 35 32 31 30 31 30 25 24 24 22 16 9 9 4 4 16 18 16 18 17 17 15 16
33 33 30 30 31 36 40 36 35 34 31 28 28 26 28 30 35 39 36 35 37 35 30 34 32 35 32 25 24 20 19 10 12 11 5 18 20 19 21 19 19 17 17
Wind_Direction
126 134 133 131 139 139 136 133 128 125 120 117 113 112 109 109 107 106 102 96 92 88 87 85 84 82 81 82 83 84 80 87 83 81 78 77 77 77 75 75 75 75 75
132 134 134 135 142 142 140 135 131 127 124 119 117 116 113 112 110 108 104 99 93 90 89 87 84 83 85 87 91 90 89 85 84 81 80 77 78 75 75 77 77 77 76
130 135 134 137 145 144 142 137 133 129 125 121 121 119 116 116 113 109 103 100 95 91 89 86 87 88 89 89 93 93 95 94 86 83 80 80 79 78 78 78 78 76 76
132 132 134 135 141 147 144 142 137 133 127 125 123 120 120 118 115 111 105 100 94 91 88 89 88 91 94 95 96 94 95 74 85 81 81 79 80 78 79 80 78 76 76
133 133 137 137 139 147 147 144 141 136 131 128 126 123 121 120 115 110 103 99 96 93 91 89 95 100 99 96 89 82 87 86 85 82 85 85 82 80 81 79 78 76 78
133 135 140 140 141 145 146 146 142 138 135 132 126 124 123 120 116 110 107 101 97 96 95 94 101 103 100 89 89 94 90 83 87 84 84 82 80 82 81 81 80 80 80
130 136 143 142 144 145 145 146 144 141 138 134 130 127 125 125 121 114 108 102 99 98 94 102 108 105 98 97 98 95 92 91 90 86 86 84 84 83 83 82 82 82 80
131 136 143 146 146 146 146 146 146 142 140 136 133 129 131 128 120 115 108 105 102 100 98 109 111 107 103 105 107 108 90 95 90 90 89 86 86 85 84 83 85 82 84
132 137 142 144 148 149 148 147 147 143 141 139 136 137 133 127 120 112 110 107 107 103 104 113 113 110 110 107 92 92 101 94 92 91 90 88 88 87 86 86 86 85 83
133 136 140 143 144 148 147 147 146 144 142 142 140 139 134 126 118 114 111 110 109 109 109 117 117 112 104 102 91 86 89 93 91 95 94 92 89 88 89 89 87 86 84
130 140 145 145 144 144 149 147 143 146 146 143 142 139 133 121 111 117 117 115 114 111 114 119 119 112 104 101 94 94 96 99 94 99 95 95 92 92 90 91 88 91 87
139 149 152 152 150 147 147 149 146 151 153 149 150 141 135 130 128 124 122 116 110 108 117 118 117 110 104 100 92 102 100 100 97 99 98 98 94 94 92 93 91 90 89
154 154 157 157 155 153 153 151 152 151 153 157 164 150 145 139 136 131 123 118 119 118 129 134 140 125 108 115 108 103 106 101 106 103 105 100 99 95 96 97 95 93 92
166 158 164 164 161 159 156 159 160 163 166 161 168 162 146 146 141 140 128 130 129 134 134 133 110 101 110 96 122 112 113 112 110 107 103 109 106 97 98 98 96 94 96
166 166 166 169 167 161 162 169 168 170 167 165 164 166 152 157 146 149 155 157 162 153 169 138 123 116 113 106 106 116 117 122 122 125 118 117 109 101 101 99 99 97 100
173 172 165 170 170 162 166 174 175 170 167 169 170 165 158 156 154 160 163 168 160 156 142 137 137 133 124 119 108 112 124 127 124 125 129 129 121 110 109 104 101 102 103
179 167 167 171 171 163 174 173 160 160 156 172 170 158 162 171 162 166 169 168 160 154 148 147 147 134 132 131 122 121 114 124 131 137 135 137 131 118 119 114 110 108 105
174 165 167 170 180 172 159 168 162 159 167 166 174 174 166 168 169 168 174 172 169 151 154 151 151 151 141 137 136 134 133 138 140 158 153 144 136 143 137 127 125 115 113
176 176 168 169 173 183 166 168 180 168 181 186 161 169 162 175 173 176 180 176 171 162 162 164 163 157 150 146 142 135 140 144 144 152 155 134 154 155 161 137 146 131 127
184 179 175 168 171 174 178 164 169 178 181 187 167 174 174 184 179 182 184 182 178 174 169 172 166 161 158 160 146 146 150 153 151 156 164 160 158 170 166 152 156 160 151
179 178 177 173 170 171 173 163 168 184 179 190 184 184 183 179 193 184 187 182 180 181 178 177 169 166 166 168 137 140 143 151 168 171 179 180 183 171 170 202 175 174 177
173 180 178 180 174 176 171 172 177 181 180 185 177 188 186 184 196 192 191 186 186 187 186 178 176 172 169 168 157 149 154 193 214 193 196 186 185 200 194 187 197 206 210
176 179 180 188 184 184 174 176 169 175 205 176 188 189 189 192 194 202 200 193 190 192 191 184 182 180 176 180 180 175 151 205 167 205 206 205 201 202 207 201 204 191 190
181 180 185 191 185 185 185 172 175 178 194 207 181 184 192 193 197 201 201 202 200 196 194 191 190 186 186 188 205 221 262 130 187 155 209 214 208 206 208 216 209 200 208
179 183 185 187 190 183 189 182 182 183 193 196 191 190 191 197 199 203 204 206 205 203 208 196 194 198 195 193 207 219 232 215 241 192 179 194 209 216 222 209 218 218 212
176 178 184 190 186 190 190 189 189 194 198 196 198 194 188 199 199 199 205 205 207 205 206 209 205 206 202 200 206 212 214 201 219 234 248 184 194 211 217 218 214 224 222
Height
793 793 798 804 809 814 817 822 824 826 829 832 834 835 837 840 841 843 844 846 848 849 850 852 853 854 856 857 858 858 859 859 860 860 861 862 863 864 864 864 864 864 865
790 796 799 805 810 815 819 824 828 829 831 835 838 840 841 843 845 846 848 849 851 852 853 855 856 858 859 860 861 862 863 864 865 865 865 866 867 868 868 869 869 869 869
790 795 800 807 812 816 821 825 830 832 835 838 841 843 844 846 849 850 851 853 854 856 857 859 860 861 862 863 865 866 867 868 869 870 870 871 872 873 873 873 874 874 873
794 795 802 808 813 818 822 827 831 835 837 841 844 846 848 850 852 854 854 857 858 860 861 862 862 864 866 867 869 870 871 873 873 873 874 876 877 877 878 878 878 879 878
797 799 802 810 815 820 824 829 833 836 840 843 847 849 851 854 856 857 858 861 861 864 865 866 866 868 869 871 872 873 875 874 874 877 879 880 881 882 882 882 883 883 883
798 800 807 811 817 821 825 831 835 839 843 846 849 853 854 857 859 861 862 864 865 867 868 869 870 872 873 874 875 877 877 878 881 883 884 885 885 886 886 886 886 887 887
797 804 811 813 818 822 827 832 837 841 845 849 852 856 857 860 862 864 866 867 868 871 871 872 874 876 877 878 879 880 881 883 884 886 888 889 890 890 891 890 891 891 892
798 808 813 817 821 824 828 834 838 843 848 852 855 858 860 863 865 867 868 871 872 873 874 876 877 879 881 881 882 884 886 886 888 890 892 893 894 894 894 894 895 895 895
802 808 815 820 824 828 830 834 840 845 850 853 857 860 863 866 868 870 872 874 875 877 878 879 881 883 884 885 887 886 888 888 892 894 895 897 897 898 898 898 898 899 899
803 808 815 821 827 831 834 837 842 847 852 856 859 862 865 869 871 873 875 877 879 879 881 883 885 887 887 888 889 890 891 893 896 898 899 900 901 901 901 901 902 902 903
805 811 818 823 828 833 836 840 844 849 854 859 862 865 867 871 874 876 878 880 882 882 884 886 888 890 891 892 893 893 895 897 899 901 902 903 904 904 904 905 906 905 906
807 815 819 824 828 833 838 842 845 850 855 859 864 866 869 872 875 878 882 883 884 886 887 889 890 890 892 894 896 897 898 900 902 904 905 906 907 908 907 908 908 908 909
808 814 819 823 828 833 837 842 847 851 855 860 863 868 870 872 876 880 884 886 887 889 890 891 893 893 896 897 898 900 901 903 904 907 908 909 910 910 910 911 912 911 912
808 813 818 823 827 832 837 842 847 851 855 859 863 868 870 873 876 881 886 887 889 891 891 893 894 896 896 898 900 900 903 906 907 908 911 911 912 913 913 913 914 914 914
806 811 818 821 827 830 836 841 846 849 854 857 863 867 870 873 876 882 886 887 889 891 893 895 897 898 900 900 902 903 904 907 909 909 911 914 914 915 915 915 916 916 916
805 810 815 821 825 829 835 839 844 848 852 856 861 865 869 872 876 882 885 887 890 892 893 896 898 900 902 903 903 906 907 908 910 912 913 914 915 916 916 917 918 918 918
802 808 813 819 823 828 833 837 841 846 851 855 859 864 868 871 876 881 885 887 889 892 894 896 899 901 903 905 906 907 909 911 912 912 914 915 917 918 918 918 919 920 920
799 804 810 815 821 826 832 835 839 844 850 855 857 863 867 872 876 880 885 887 890 892 894 896 899 902 903 906 907 909 911 912 913 914 913 914 916 918 919 918 920 920 921
797 802 808 813 818 824 831 834 839 846 851 855 856 862 866 871 875 880 884 887 889 892 894 896 899 900 903 906 908 910 911 913 914 915 915 917 917 916 918 919 919 920 921
795 800 806 812 817 824 829 834 838 844 849 853 855 860 865 870 873 878 882 885 888 891 893 895 898 900 903 905 907 910 912 913 914 916 917 917 917 917 917 918 919 919 920
790 798 804 810 815 820 826 831 836 842 846 851 853 858 864 868 872 875 879 883 886 889 892 894 896 899 902 904 906 910 912 913 914 915 917 917 917 917 918 917 917 917 919
786 793 801 806 812 817 822 829 834 838 839 846 850 854 859 865 870 872 875 880 884 887 890 891 894 897 900 902 905 908 913 915 913 914 915 915 916 916 917 917 918 916 916
786 791 797 805 809 813 818 825 833 838 843 838 846 848 849 857 865 869 872 876 881 884 886 889 891 894 897 900 903 901 906 907 908 911 913 913 914 915 915 916 915 916 916
782 787 794 801 806 811 814 820 825 829 835 837 836 845 847 852 859 864 868 872 877 880 883 884 888 890 894 896 899 897 898 899 903 909 910 910 910 912 912 912 913 914 915
775 783 790 796 803 807 810 815 822 827 830 833 835 840 838 841 851 857 862 866 871 876 880 881 884 887 889 892 893 895 896 896 897 898 903 904 907 908 908 909 909 910 911
769 777 784 791 798 802 808 812 817 822 825 827 831 836 836 840 843 846 855 859 863 869 874 877 880 883 885 887 890 891 892 892 893 894 895 897 899 902 904 904 906 906 908